Year,Month,Day,Hour,Minute,Value (Times are PST for temperature in C)
2018,10,17,00,00,7.80
2018,10,17,00,01,7.80
2018,10,17,00,02,7.80
2018,10,17,00,03,7.80
2018,10,17,00,04,7.80
2018,10,17,00,05,7.80
2018,10,17,00,06,7.80
2018,10,17,00,07,7.70
2018,10,17,00,08,7.70
2018,10,17,00,09,7.70
2018,10,17,00,10,7.70
2018,10,17,00,11,7.60
2018,10,17,00,12,7.60
2018,10,17,00,13,7.50
2018,10,17,00,14,7.50
2018,10,17,00,15,7.50
2018,10,17,00,16,7.40
2018,10,17,00,17,7.40
2018,10,17,00,18,7.40
2018,10,17,00,19,7.40
2018,10,17,00,20,7.40
2018,10,17,00,21,7.30
2018,10,17,00,22,7.20
2018,10,17,00,23,7.10
2018,10,17,00,24,7.10
2018,10,17,00,25,7.10
2018,10,17,00,26,7.00
2018,10,17,00,27,7.00
2018,10,17,00,28,7.10
2018,10,17,00,29,7.20
2018,10,17,00,30,7.20
2018,10,17,00,31,7.20
2018,10,17,00,32,7.30
2018,10,17,00,33,7.30
2018,10,17,00,34,7.40
2018,10,17,00,35,7.40
2018,10,17,00,36,7.40
2018,10,17,00,37,7.40
2018,10,17,00,38,7.40
2018,10,17,00,39,7.50
2018,10,17,00,40,7.50
2018,10,17,00,41,7.60
2018,10,17,00,42,7.70
2018,10,17,00,43,7.70
2018,10,17,00,44,7.80
2018,10,17,00,45,7.80
2018,10,17,00,46,7.90
2018,10,17,00,47,7.80
2018,10,17,00,48,7.80
2018,10,17,00,49,7.70
2018,10,17,00,50,7.70
2018,10,17,00,51,7.60
2018,10,17,00,52,7.60
2018,10,17,00,53,7.50
2018,10,17,00,54,7.40
2018,10,17,00,55,7.40
2018,10,17,00,56,7.30
2018,10,17,00,57,7.20
2018,10,17,00,58,7.20
2018,10,17,00,59,7.20
2018,10,17,01,00,7.20
2018,10,17,01,01,7.10
2018,10,17,01,02,7.00
2018,10,17,01,03,6.90
2018,10,17,01,04,6.90
2018,10,17,01,05,6.90
2018,10,17,01,06,6.80
2018,10,17,01,07,6.80
2018,10,17,01,08,6.80
2018,10,17,01,09,6.80
2018,10,17,01,10,6.80
2018,10,17,01,11,6.80
2018,10,17,01,12,6.80
2018,10,17,01,13,6.70
2018,10,17,01,14,6.70
2018,10,17,01,15,6.70
2018,10,17,01,16,6.60
2018,10,17,01,17,6.60
2018,10,17,01,18,6.50
2018,10,17,01,19,6.50
2018,10,17,01,20,6.40
2018,10,17,01,21,6.40
2018,10,17,01,22,6.40
2018,10,17,01,23,6.40
2018,10,17,01,24,6.50
2018,10,17,01,25,6.40
2018,10,17,01,26,6.40
2018,10,17,01,27,6.40
2018,10,17,01,28,6.40
2018,10,17,01,29,6.40
2018,10,17,01,30,6.40
2018,10,17,01,31,6.30
2018,10,17,01,32,6.40
2018,10,17,01,33,6.40
2018,10,17,01,34,6.50
2018,10,17,01,35,6.50
2018,10,17,01,36,6.50
2018,10,17,01,37,6.50
2018,10,17,01,38,6.50
2018,10,17,01,39,6.50
2018,10,17,01,40,6.50
2018,10,17,01,41,6.40
2018,10,17,01,42,6.40
2018,10,17,01,43,6.30
2018,10,17,01,44,6.30
2018,10,17,01,45,6.20
2018,10,17,01,46,6.20
2018,10,17,01,47,6.20
2018,10,17,01,48,6.20
2018,10,17,01,49,6.20
2018,10,17,01,50,6.30
2018,10,17,01,51,6.30
2018,10,17,01,52,6.30
2018,10,17,01,53,6.30
2018,10,17,01,54,6.30
2018,10,17,01,55,6.30
2018,10,17,01,56,6.30
2018,10,17,01,57,6.20
2018,10,17,01,58,6.20
2018,10,17,01,59,6.20
2018,10,17,02,00,6.10
2018,10,17,02,01,6.10
2018,10,17,02,02,6.10
2018,10,17,02,03,6.10
2018,10,17,02,04,6.10
2018,10,17,02,05,6.10
2018,10,17,02,06,6.10
2018,10,17,02,07,6.10
2018,10,17,02,08,6.10
2018,10,17,02,09,6.00
2018,10,17,02,10,6.00
2018,10,17,02,11,5.90
2018,10,17,02,12,5.90
2018,10,17,02,13,5.80
2018,10,17,02,14,5.90
2018,10,17,02,15,5.90
2018,10,17,02,16,6.00
2018,10,17,02,17,6.20
2018,10,17,02,18,6.30
2018,10,17,02,19,6.30
2018,10,17,02,20,6.20
2018,10,17,02,21,6.20
2018,10,17,02,22,6.20
2018,10,17,02,23,6.20
2018,10,17,02,24,6.20
2018,10,17,02,25,6.20
2018,10,17,02,26,6.20
2018,10,17,02,27,6.30
2018,10,17,02,28,6.30
2018,10,17,02,29,6.30
2018,10,17,02,30,6.30
2018,10,17,02,31,6.30
2018,10,17,02,32,6.30
2018,10,17,02,33,6.30
2018,10,17,02,34,6.30
2018,10,17,02,35,6.20
2018,10,17,02,36,6.20
2018,10,17,02,37,6.20
2018,10,17,02,38,6.20
2018,10,17,02,39,6.20
2018,10,17,02,40,6.20
2018,10,17,02,41,6.30
2018,10,17,02,42,6.30
2018,10,17,02,43,6.30
2018,10,17,02,44,6.30
2018,10,17,02,45,6.20
2018,10,17,02,46,6.20
2018,10,17,02,47,6.20
2018,10,17,02,48,6.10
2018,10,17,02,49,6.20
2018,10,17,02,50,6.20
2018,10,17,02,51,6.20
2018,10,17,02,52,6.20
2018,10,17,02,53,6.20
2018,10,17,02,54,6.20
2018,10,17,02,55,6.10
2018,10,17,02,56,6.10
2018,10,17,02,57,6.10
2018,10,17,02,58,6.00
2018,10,17,02,59,6.10
2018,10,17,03,00,6.10
2018,10,17,03,01,6.10
2018,10,17,03,02,6.10
2018,10,17,03,03,6.00
2018,10,17,03,04,6.00
2018,10,17,03,05,6.00
2018,10,17,03,06,5.90
2018,10,17,03,07,6.00
2018,10,17,03,08,6.00
2018,10,17,03,09,6.00
2018,10,17,03,10,6.00
2018,10,17,03,11,6.00
2018,10,17,03,12,5.90
2018,10,17,03,13,5.90
2018,10,17,03,14,5.90
2018,10,17,03,15,5.90
2018,10,17,03,16,6.00
2018,10,17,03,17,6.00
2018,10,17,03,18,6.00
2018,10,17,03,19,6.10
2018,10,17,03,20,6.10
2018,10,17,03,21,6.10
2018,10,17,03,22,6.20
2018,10,17,03,23,6.20
2018,10,17,03,24,6.10
2018,10,17,03,25,6.10
2018,10,17,03,26,6.10
2018,10,17,03,27,6.10
2018,10,17,03,28,6.10
2018,10,17,03,29,6.10
2018,10,17,03,30,6.20
2018,10,17,03,31,6.20
2018,10,17,03,32,6.20
2018,10,17,03,33,6.20
2018,10,17,03,34,6.20
2018,10,17,03,35,6.20
2018,10,17,03,36,6.20
2018,10,17,03,37,6.10
2018,10,17,03,38,6.10
2018,10,17,03,39,6.00
2018,10,17,03,40,6.00
2018,10,17,03,41,5.90
2018,10,17,03,42,5.90
2018,10,17,03,43,5.90
2018,10,17,03,44,5.90
2018,10,17,03,45,5.80
2018,10,17,03,46,5.80
2018,10,17,03,47,5.80
2018,10,17,03,48,5.80
2018,10,17,03,49,5.80
2018,10,17,03,50,5.70
2018,10,17,03,51,5.70
2018,10,17,03,52,5.60
2018,10,17,03,53,5.60
2018,10,17,03,54,5.60
2018,10,17,03,55,5.60
2018,10,17,03,56,5.60
2018,10,17,03,57,5.60
2018,10,17,03,58,5.70
2018,10,17,03,59,5.70
2018,10,17,04,00,5.70
2018,10,17,04,01,5.70
2018,10,17,04,02,5.70
2018,10,17,04,03,5.60
2018,10,17,04,04,5.70
2018,10,17,04,05,5.70
2018,10,17,04,06,5.70
2018,10,17,04,07,5.80
2018,10,17,04,08,5.80
2018,10,17,04,09,5.80
2018,10,17,04,10,5.70
2018,10,17,04,11,5.70
2018,10,17,04,12,5.70
2018,10,17,04,13,5.70
2018,10,17,04,14,5.80
2018,10,17,04,15,5.80
2018,10,17,04,16,5.80
2018,10,17,04,17,5.90
2018,10,17,04,18,5.90
2018,10,17,04,19,5.90
2018,10,17,04,20,5.90
2018,10,17,04,21,5.90
2018,10,17,04,22,5.90
2018,10,17,04,23,5.90
2018,10,17,04,24,5.90
2018,10,17,04,25,5.90
2018,10,17,04,26,6.00
2018,10,17,04,27,6.00
2018,10,17,04,28,6.10
2018,10,17,04,29,6.00
2018,10,17,04,30,6.00
2018,10,17,04,31,5.90
2018,10,17,04,32,5.90
2018,10,17,04,33,5.80
2018,10,17,04,34,5.80
2018,10,17,04,35,5.70
2018,10,17,04,36,5.70
2018,10,17,04,37,5.60
2018,10,17,04,38,5.60
2018,10,17,04,39,5.50
2018,10,17,04,40,5.40
2018,10,17,04,41,5.40
2018,10,17,04,42,5.40
2018,10,17,04,43,5.30
2018,10,17,04,44,5.30
2018,10,17,04,45,5.30
2018,10,17,04,46,5.30
2018,10,17,04,47,5.30
2018,10,17,04,48,5.30
2018,10,17,04,49,5.30
2018,10,17,04,50,5.20
2018,10,17,04,51,5.20
2018,10,17,04,52,5.20
2018,10,17,04,53,5.20
2018,10,17,04,54,5.20
2018,10,17,04,55,5.20
2018,10,17,04,56,5.20
2018,10,17,04,57,5.20
2018,10,17,04,58,5.20
2018,10,17,04,59,5.20
2018,10,17,05,00,5.20
2018,10,17,05,01,5.20
2018,10,17,05,02,5.30
2018,10,17,05,03,5.30
2018,10,17,05,04,5.40
2018,10,17,05,05,5.40
2018,10,17,05,06,5.50
2018,10,17,05,07,5.60
2018,10,17,05,08,5.60
2018,10,17,05,09,5.70
2018,10,17,05,10,5.70
2018,10,17,05,11,5.70
2018,10,17,05,12,5.70
2018,10,17,05,13,5.80
2018,10,17,05,14,5.80
2018,10,17,05,15,5.80
2018,10,17,05,16,5.90
2018,10,17,05,17,5.90
2018,10,17,05,18,5.90
2018,10,17,05,19,5.90
2018,10,17,05,20,5.90
2018,10,17,05,21,5.80
2018,10,17,05,22,5.80
2018,10,17,05,23,5.70
2018,10,17,05,24,5.70
2018,10,17,05,25,5.60
2018,10,17,05,26,5.60
2018,10,17,05,27,5.50
2018,10,17,05,28,5.50
2018,10,17,05,29,5.40
2018,10,17,05,30,5.40
2018,10,17,05,31,5.30
2018,10,17,05,32,5.30
2018,10,17,05,33,5.30
2018,10,17,05,34,5.30
2018,10,17,05,35,5.30
2018,10,17,05,36,5.30
2018,10,17,05,37,5.20
2018,10,17,05,38,5.20
2018,10,17,05,39,5.20
2018,10,17,05,40,5.20
2018,10,17,05,41,5.10
2018,10,17,05,42,5.10
2018,10,17,05,43,5.10
2018,10,17,05,44,5.10
2018,10,17,05,45,5.00
2018,10,17,05,46,5.00
2018,10,17,05,47,5.00
2018,10,17,05,48,4.90
2018,10,17,05,49,4.90
2018,10,17,05,50,4.90
2018,10,17,05,51,4.90
2018,10,17,05,52,4.80
2018,10,17,05,53,4.80
2018,10,17,05,54,4.80
2018,10,17,05,55,4.70
2018,10,17,05,56,4.70
2018,10,17,05,57,4.70
2018,10,17,05,58,4.70
2018,10,17,05,59,4.70
2018,10,17,06,00,4.70
2018,10,17,06,01,4.70
2018,10,17,06,02,4.70
2018,10,17,06,03,4.70
2018,10,17,06,04,4.60
2018,10,17,06,05,4.60
2018,10,17,06,06,4.60
2018,10,17,06,07,4.60
2018,10,17,06,08,4.50
2018,10,17,06,09,4.50
2018,10,17,06,10,4.50
2018,10,17,06,11,4.40
2018,10,17,06,12,4.40
2018,10,17,06,13,4.40
2018,10,17,06,14,4.40
2018,10,17,06,15,4.40
2018,10,17,06,16,4.40
2018,10,17,06,17,4.40
2018,10,17,06,18,4.40
2018,10,17,06,19,4.40
2018,10,17,06,20,4.50
2018,10,17,06,21,4.50
2018,10,17,06,22,4.50
2018,10,17,06,23,4.60
2018,10,17,06,24,4.70
2018,10,17,06,25,4.80
2018,10,17,06,26,4.90
2018,10,17,06,27,4.90
2018,10,17,06,28,5.00
2018,10,17,06,29,5.00
2018,10,17,06,30,5.00
2018,10,17,06,31,5.00
2018,10,17,06,32,5.00
2018,10,17,06,33,4.90
2018,10,17,06,34,4.90
2018,10,17,06,35,4.90
2018,10,17,06,36,4.90
2018,10,17,06,37,4.90
2018,10,17,06,38,4.90
2018,10,17,06,39,4.90
2018,10,17,06,40,4.90
2018,10,17,06,41,4.80
2018,10,17,06,42,4.80
2018,10,17,06,43,4.80
2018,10,17,06,44,4.70
2018,10,17,06,45,4.70
2018,10,17,06,46,4.60
2018,10,17,06,47,4.60
2018,10,17,06,48,4.60
2018,10,17,06,49,4.50
2018,10,17,06,50,4.50
2018,10,17,06,51,4.60
2018,10,17,06,52,4.70
2018,10,17,06,53,4.80
2018,10,17,06,54,4.90
2018,10,17,06,55,4.90
2018,10,17,06,56,4.90
2018,10,17,06,57,5.00
2018,10,17,06,58,5.00
2018,10,17,06,59,5.10
2018,10,17,07,00,5.20
2018,10,17,07,01,5.20
2018,10,17,07,02,5.30
2018,10,17,07,03,5.40
2018,10,17,07,04,5.40
2018,10,17,07,05,5.40
2018,10,17,07,06,5.50
2018,10,17,07,07,5.50
2018,10,17,07,08,5.50
2018,10,17,07,09,5.50
2018,10,17,07,10,5.50
2018,10,17,07,11,5.40
2018,10,17,07,12,5.30
2018,10,17,07,13,5.20
2018,10,17,07,14,5.10
2018,10,17,07,15,5.00
2018,10,17,07,16,4.90
2018,10,17,07,17,4.80
2018,10,17,07,18,4.80
2018,10,17,07,19,4.70
2018,10,17,07,20,4.70
2018,10,17,07,21,4.70
2018,10,17,07,22,4.60
2018,10,17,07,23,4.60
2018,10,17,07,24,4.60
2018,10,17,07,25,4.60
2018,10,17,07,26,4.50
2018,10,17,07,27,4.50
2018,10,17,07,28,4.40
2018,10,17,07,29,4.40
2018,10,17,07,30,4.40
2018,10,17,07,31,4.40
2018,10,17,07,32,4.30
2018,10,17,07,33,4.30
2018,10,17,07,34,4.30
2018,10,17,07,35,4.30
2018,10,17,07,36,4.20
2018,10,17,07,37,4.30
2018,10,17,07,38,4.30
2018,10,17,07,39,4.30
2018,10,17,07,40,4.30
2018,10,17,07,41,4.30
2018,10,17,07,42,4.30
2018,10,17,07,43,4.30
2018,10,17,07,44,4.30
2018,10,17,07,45,4.20
2018,10,17,07,46,4.20
2018,10,17,07,47,4.20
2018,10,17,07,48,4.20
2018,10,17,07,49,4.20
2018,10,17,07,50,4.20
2018,10,17,07,51,4.20
2018,10,17,07,52,4.20
2018,10,17,07,53,4.30
2018,10,17,07,54,4.30
2018,10,17,07,55,4.30
2018,10,17,07,56,4.30
2018,10,17,07,57,4.30
2018,10,17,07,58,4.30
2018,10,17,07,59,4.30
2018,10,17,08,00,4.30
2018,10,17,08,01,4.30
2018,10,17,08,02,4.30
2018,10,17,08,03,4.40
2018,10,17,08,04,4.40
2018,10,17,08,05,4.40
2018,10,17,08,06,4.40
2018,10,17,08,07,4.30
2018,10,17,08,08,4.30
2018,10,17,08,09,4.30
2018,10,17,08,10,4.30
2018,10,17,08,11,4.30
2018,10,17,08,12,4.30
2018,10,17,08,13,4.30
2018,10,17,08,14,4.30
2018,10,17,08,15,4.40
2018,10,17,08,16,4.40
2018,10,17,08,17,4.40
2018,10,17,08,18,4.30
2018,10,17,08,19,4.30
2018,10,17,08,20,4.30
2018,10,17,08,21,4.30
2018,10,17,08,22,4.30
2018,10,17,08,23,4.30
2018,10,17,08,24,4.20
2018,10,17,08,25,4.20
2018,10,17,08,26,4.20
2018,10,17,08,27,4.10
2018,10,17,08,28,4.10
2018,10,17,08,29,4.10
2018,10,17,08,30,4.10
2018,10,17,08,31,4.10
2018,10,17,08,32,4.10
2018,10,17,08,33,4.10
2018,10,17,08,34,4.20
2018,10,17,08,35,4.20
2018,10,17,08,36,4.20
2018,10,17,08,37,4.20
2018,10,17,08,38,4.30
2018,10,17,08,39,4.30
2018,10,17,08,40,4.30
2018,10,17,08,41,4.30
2018,10,17,08,42,4.30
2018,10,17,08,43,4.30
2018,10,17,08,44,4.40
2018,10,17,08,45,4.40
2018,10,17,08,46,4.30
2018,10,17,08,47,4.30
2018,10,17,08,48,4.30
2018,10,17,08,49,4.40
2018,10,17,08,50,4.40
2018,10,17,08,51,4.50
2018,10,17,08,52,4.50
2018,10,17,08,53,4.60
2018,10,17,08,54,4.60
2018,10,17,08,55,4.60
2018,10,17,08,56,4.60
2018,10,17,08,57,4.60
2018,10,17,08,58,4.60
2018,10,17,08,59,4.60
2018,10,17,09,00,4.60
2018,10,17,09,01,4.60
2018,10,17,09,02,4.60
2018,10,17,09,03,4.60
2018,10,17,09,04,4.70
2018,10,17,09,05,4.70
2018,10,17,09,06,4.70
2018,10,17,09,07,4.70
2018,10,17,09,08,4.70
2018,10,17,09,09,4.70
2018,10,17,09,10,4.70
2018,10,17,09,11,4.70
2018,10,17,09,12,4.70
2018,10,17,09,13,4.70
2018,10,17,09,14,4.70
2018,10,17,09,15,4.80
2018,10,17,09,16,4.80
2018,10,17,09,17,4.80
2018,10,17,09,18,4.90
2018,10,17,09,19,4.90
2018,10,17,09,20,4.90
2018,10,17,09,21,5.00
2018,10,17,09,22,5.10
2018,10,17,09,23,5.30
2018,10,17,09,24,5.40
2018,10,17,09,25,5.50
2018,10,17,09,26,5.70
2018,10,17,09,27,5.80
2018,10,17,09,28,6.00
2018,10,17,09,29,6.20
2018,10,17,09,30,6.40
2018,10,17,09,31,6.50
2018,10,17,09,32,6.70
2018,10,17,09,33,6.80
2018,10,17,09,34,6.90
2018,10,17,09,35,7.00
2018,10,17,09,36,7.00
2018,10,17,09,37,7.10
2018,10,17,09,38,7.20
2018,10,17,09,39,7.30
2018,10,17,09,40,7.40
2018,10,17,09,41,7.60
2018,10,17,09,42,7.70
2018,10,17,09,43,7.90
2018,10,17,09,44,7.90
2018,10,17,09,45,8.00
2018,10,17,09,46,8.00
2018,10,17,09,47,8.00
2018,10,17,09,48,8.10
2018,10,17,09,49,8.10
2018,10,17,09,50,8.10
2018,10,17,09,51,8.10
2018,10,17,09,52,8.20
2018,10,17,09,53,8.30
2018,10,17,09,54,8.40
2018,10,17,09,55,8.50
2018,10,17,09,56,8.60
2018,10,17,09,57,8.70
2018,10,17,09,58,8.80
2018,10,17,09,59,8.80
2018,10,17,10,00,8.90
2018,10,17,10,01,9.00
2018,10,17,10,02,9.10
2018,10,17,10,03,9.20
2018,10,17,10,04,9.30
2018,10,17,10,05,9.30
2018,10,17,10,06,9.40
2018,10,17,10,07,9.40
2018,10,17,10,08,9.50
2018,10,17,10,09,9.60
2018,10,17,10,10,9.60
2018,10,17,10,11,9.60
2018,10,17,10,12,9.60
2018,10,17,10,13,9.60
2018,10,17,10,14,9.70
2018,10,17,10,15,9.70
2018,10,17,10,16,9.70
2018,10,17,10,17,9.80
2018,10,17,10,18,9.90
2018,10,17,10,19,10.00
2018,10,17,10,20,10.10
2018,10,17,10,21,10.20
2018,10,17,10,22,10.30
2018,10,17,10,23,10.40
2018,10,17,10,24,10.50
2018,10,17,10,25,10.60
2018,10,17,10,26,10.70
2018,10,17,10,27,10.80
2018,10,17,10,28,10.90
2018,10,17,10,29,11.00
2018,10,17,10,30,11.10
2018,10,17,10,31,11.20
2018,10,17,10,32,11.20
2018,10,17,10,33,11.20
2018,10,17,10,34,11.30
2018,10,17,10,35,11.30
2018,10,17,10,36,11.40
2018,10,17,10,37,11.40
2018,10,17,10,38,11.50
2018,10,17,10,39,11.60
2018,10,17,10,40,11.70
2018,10,17,10,41,11.70
2018,10,17,10,42,11.80
2018,10,17,10,43,11.80
2018,10,17,10,44,11.80
2018,10,17,10,45,11.80
2018,10,17,10,46,11.90
2018,10,17,10,47,11.90
2018,10,17,10,48,11.90
2018,10,17,10,49,11.90
2018,10,17,10,50,11.90
2018,10,17,10,51,11.90
2018,10,17,10,52,11.90
2018,10,17,10,53,12.00
2018,10,17,10,54,12.10
2018,10,17,10,55,12.10
2018,10,17,10,56,12.20
2018,10,17,10,57,12.20
2018,10,17,10,58,12.30
2018,10,17,10,59,12.40
2018,10,17,11,00,12.50
2018,10,17,11,01,12.60
2018,10,17,11,02,12.70
2018,10,17,11,03,12.70
2018,10,17,11,04,12.80
2018,10,17,11,05,12.90
2018,10,17,11,06,13.00
2018,10,17,11,07,13.10
2018,10,17,11,08,13.20
2018,10,17,11,09,13.30
2018,10,17,11,10,13.40
2018,10,17,11,11,13.50
2018,10,17,11,12,13.60
2018,10,17,11,13,13.70
2018,10,17,11,14,13.70
2018,10,17,11,15,13.80
2018,10,17,11,16,13.80
2018,10,17,11,17,13.90
2018,10,17,11,18,14.00
2018,10,17,11,19,14.10
2018,10,17,11,20,14.10
2018,10,17,11,21,14.10
2018,10,17,11,22,14.20
2018,10,17,11,23,14.20
2018,10,17,11,24,14.20
2018,10,17,11,25,14.20
2018,10,17,11,26,14.20
2018,10,17,11,27,14.20
2018,10,17,11,28,14.30
2018,10,17,11,29,14.30
2018,10,17,11,30,14.40
2018,10,17,11,31,14.50
2018,10,17,11,32,14.60
2018,10,17,11,33,14.60
2018,10,17,11,34,14.70
2018,10,17,11,35,14.80
2018,10,17,11,36,14.90
2018,10,17,11,37,15.00
2018,10,17,11,38,15.10
2018,10,17,11,39,15.10
2018,10,17,11,40,15.10
2018,10,17,11,41,15.10
2018,10,17,11,42,15.00
2018,10,17,11,43,15.00
2018,10,17,11,44,14.90
2018,10,17,11,45,14.90
2018,10,17,11,46,14.80
2018,10,17,11,47,14.80
2018,10,17,11,48,14.70
2018,10,17,11,49,14.60
2018,10,17,11,50,14.60
2018,10,17,11,51,14.60
2018,10,17,11,52,14.60
2018,10,17,11,53,14.60
2018,10,17,11,54,14.60
2018,10,17,11,55,14.60
2018,10,17,11,56,14.60
2018,10,17,11,57,14.60
2018,10,17,11,58,14.60
2018,10,17,11,59,14.70
2018,10,17,12,00,14.70
2018,10,17,12,01,14.70
2018,10,17,12,02,14.70
2018,10,17,12,03,14.70
2018,10,17,12,04,14.60
2018,10,17,12,05,14.60
2018,10,17,12,06,14.60
2018,10,17,12,07,14.70
2018,10,17,12,08,14.70
2018,10,17,12,09,14.80
2018,10,17,12,10,14.80
2018,10,17,12,11,14.80
2018,10,17,12,12,14.80
2018,10,17,12,13,14.80
2018,10,17,12,14,14.80
2018,10,17,12,15,14.80
2018,10,17,12,16,14.80
2018,10,17,12,17,14.90
2018,10,17,12,18,14.90
2018,10,17,12,19,14.90
2018,10,17,12,20,14.90
2018,10,17,12,21,15.00
2018,10,17,12,22,15.00
2018,10,17,12,23,15.00
2018,10,17,12,24,15.10
2018,10,17,12,25,15.10
2018,10,17,12,26,15.10
2018,10,17,12,27,15.20
2018,10,17,12,28,15.20
2018,10,17,12,29,15.30
2018,10,17,12,30,15.40
2018,10,17,12,31,15.40
2018,10,17,12,32,15.50
2018,10,17,12,33,15.50
2018,10,17,12,34,15.50
2018,10,17,12,35,15.50
2018,10,17,12,36,15.50
2018,10,17,12,37,15.60
2018,10,17,12,38,15.60
2018,10,17,12,39,15.60
2018,10,17,12,40,15.60
2018,10,17,12,41,15.50
2018,10,17,12,42,15.50
2018,10,17,12,43,15.50
2018,10,17,12,44,15.50
2018,10,17,12,45,15.50
2018,10,17,12,46,15.40
2018,10,17,12,47,15.50
2018,10,17,12,48,15.50
2018,10,17,12,49,15.50
2018,10,17,12,50,15.50
2018,10,17,12,51,15.50
2018,10,17,12,52,15.50
2018,10,17,12,53,15.50
2018,10,17,12,54,15.50
2018,10,17,12,55,15.50
2018,10,17,12,56,15.50
2018,10,17,12,57,15.60
2018,10,17,12,58,15.60
2018,10,17,12,59,15.70
2018,10,17,13,00,15.70
2018,10,17,13,01,15.80
2018,10,17,13,02,15.80
2018,10,17,13,03,15.90
2018,10,17,13,04,15.90
2018,10,17,13,05,16.00
2018,10,17,13,06,16.00
2018,10,17,13,07,16.10
2018,10,17,13,08,16.10
2018,10,17,13,09,16.20
2018,10,17,13,10,16.10
2018,10,17,13,11,16.10
2018,10,17,13,12,16.00
2018,10,17,13,13,16.00
2018,10,17,13,14,16.00
2018,10,17,13,15,16.10
2018,10,17,13,16,16.10
2018,10,17,13,17,16.10
2018,10,17,13,18,16.20
2018,10,17,13,19,16.30
2018,10,17,13,20,16.40
2018,10,17,13,21,16.50
2018,10,17,13,22,16.60
2018,10,17,13,23,16.70
2018,10,17,13,24,16.80
2018,10,17,13,25,16.80
2018,10,17,13,26,16.90
2018,10,17,13,27,16.90
2018,10,17,13,28,17.00
2018,10,17,13,29,17.10
2018,10,17,13,30,17.20
2018,10,17,13,31,17.20
2018,10,17,13,32,17.20
2018,10,17,13,33,17.20
2018,10,17,13,34,17.10
2018,10,17,13,35,17.10
2018,10,17,13,36,17.00
2018,10,17,13,37,16.90
2018,10,17,13,38,16.90
2018,10,17,13,39,16.90
2018,10,17,13,40,16.90
2018,10,17,13,41,16.90
2018,10,17,13,42,16.90
2018,10,17,13,43,16.90
2018,10,17,13,44,17.00
2018,10,17,13,45,17.00
2018,10,17,13,46,17.00
2018,10,17,13,47,17.00
2018,10,17,13,48,17.00
2018,10,17,13,49,17.00
2018,10,17,13,50,17.00
2018,10,17,13,51,17.10
2018,10,17,13,52,17.10
2018,10,17,13,53,17.10
2018,10,17,13,54,17.10
2018,10,17,13,55,17.20
2018,10,17,13,56,17.20
2018,10,17,13,57,17.30
2018,10,17,13,58,17.30
2018,10,17,13,59,17.40
2018,10,17,14,00,17.40
2018,10,17,14,01,17.40
2018,10,17,14,02,17.30
2018,10,17,14,03,17.30
2018,10,17,14,04,17.30
2018,10,17,14,05,17.30
2018,10,17,14,06,17.40
2018,10,17,14,07,17.40
2018,10,17,14,08,17.40
2018,10,17,14,09,17.40
2018,10,17,14,10,17.40
2018,10,17,14,11,17.30
2018,10,17,14,12,17.40
2018,10,17,14,13,17.40
2018,10,17,14,14,17.40
2018,10,17,14,15,17.40
2018,10,17,14,16,17.40
2018,10,17,14,17,17.50
2018,10,17,14,18,17.50
2018,10,17,14,19,17.50
2018,10,17,14,20,17.50
2018,10,17,14,21,17.40
2018,10,17,14,22,17.40
2018,10,17,14,23,17.30
2018,10,17,14,24,17.30
2018,10,17,14,25,17.30
2018,10,17,14,26,17.30
2018,10,17,14,27,17.40
2018,10,17,14,28,17.50
2018,10,17,14,29,17.50
2018,10,17,14,30,17.60
2018,10,17,14,31,17.60
2018,10,17,14,32,17.70
2018,10,17,14,33,17.70
2018,10,17,14,34,17.60
2018,10,17,14,35,17.60
2018,10,17,14,36,17.60
2018,10,17,14,37,17.60
2018,10,17,14,38,17.60
2018,10,17,14,39,17.60
2018,10,17,14,40,17.60
2018,10,17,14,41,17.60
2018,10,17,14,42,17.50
2018,10,17,14,43,17.50
2018,10,17,14,44,17.40
2018,10,17,14,45,17.40
2018,10,17,14,46,17.50
2018,10,17,14,47,17.50
2018,10,17,14,48,17.60
2018,10,17,14,49,17.70
2018,10,17,14,50,17.80
2018,10,17,14,51,17.90
2018,10,17,14,52,18.00
2018,10,17,14,53,18.10
2018,10,17,14,54,18.20
2018,10,17,14,55,18.20
2018,10,17,14,56,18.40
2018,10,17,14,57,18.50
2018,10,17,14,58,18.60
2018,10,17,14,59,18.70
2018,10,17,15,00,18.70
2018,10,17,15,01,18.80
2018,10,17,15,02,18.80
2018,10,17,15,03,18.90
2018,10,17,15,04,18.90
2018,10,17,15,05,18.90
2018,10,17,15,06,19.00
2018,10,17,15,07,19.00
2018,10,17,15,08,19.00
2018,10,17,15,09,19.00
2018,10,17,15,10,19.10
2018,10,17,15,11,19.10
2018,10,17,15,12,19.10
2018,10,17,15,13,19.20
2018,10,17,15,14,19.20
2018,10,17,15,15,19.20
2018,10,17,15,16,19.20
2018,10,17,15,17,19.20
2018,10,17,15,18,19.20
2018,10,17,15,19,19.20
2018,10,17,15,20,19.20
2018,10,17,15,21,19.30
2018,10,17,15,22,19.30
2018,10,17,15,23,19.30
2018,10,17,15,24,19.40
2018,10,17,15,25,19.40
2018,10,17,15,26,19.40
2018,10,17,15,27,19.50
2018,10,17,15,28,19.50
2018,10,17,15,29,19.50
2018,10,17,15,30,19.50
2018,10,17,15,31,19.40
2018,10,17,15,32,19.30
2018,10,17,15,33,19.20
2018,10,17,15,34,19.20
2018,10,17,15,35,19.10
2018,10,17,15,36,19.00
2018,10,17,15,37,18.90
2018,10,17,15,38,18.80
2018,10,17,15,39,18.80
2018,10,17,15,40,18.80
2018,10,17,15,41,18.80
2018,10,17,15,42,18.80
2018,10,17,15,43,18.80
2018,10,17,15,44,18.80
2018,10,17,15,45,18.90
2018,10,17,15,46,18.90
2018,10,17,15,47,19.00
2018,10,17,15,48,19.00
2018,10,17,15,49,18.90
2018,10,17,15,50,18.90
2018,10,17,15,51,18.90
2018,10,17,15,52,18.90
2018,10,17,15,53,18.90
2018,10,17,15,54,18.90
2018,10,17,15,55,19.00
2018,10,17,15,56,19.00
2018,10,17,15,57,19.10
2018,10,17,15,58,19.10
2018,10,17,15,59,19.20
2018,10,17,16,00,19.30
2018,10,17,16,01,19.20
2018,10,17,16,02,19.20
2018,10,17,16,03,19.20
2018,10,17,16,04,19.30
2018,10,17,16,05,19.30
2018,10,17,16,06,19.30
2018,10,17,16,07,19.30
2018,10,17,16,08,19.20
2018,10,17,16,09,19.20
2018,10,17,16,10,19.20
2018,10,17,16,11,19.20
2018,10,17,16,12,19.20
2018,10,17,16,13,19.30
2018,10,17,16,14,19.30
2018,10,17,16,15,19.30
2018,10,17,16,16,19.40
2018,10,17,16,17,19.40
2018,10,17,16,18,19.40
2018,10,17,16,19,19.40
2018,10,17,16,20,19.40
2018,10,17,16,21,19.40
2018,10,17,16,22,19.40
2018,10,17,16,23,19.30
2018,10,17,16,24,19.30
2018,10,17,16,25,19.30
2018,10,17,16,26,19.20
2018,10,17,16,27,19.20
2018,10,17,16,28,19.10
2018,10,17,16,29,19.00
2018,10,17,16,30,18.90
2018,10,17,16,31,18.80
2018,10,17,16,32,18.80
2018,10,17,16,33,18.80
2018,10,17,16,34,18.70
2018,10,17,16,35,18.70
2018,10,17,16,36,18.60
2018,10,17,16,37,18.60
2018,10,17,16,38,18.70
2018,10,17,16,39,18.70
2018,10,17,16,40,18.70
2018,10,17,16,41,18.70
2018,10,17,16,42,18.70
2018,10,17,16,43,18.70
2018,10,17,16,44,18.70
2018,10,17,16,45,18.60
2018,10,17,16,46,18.50
2018,10,17,16,47,18.30
2018,10,17,16,48,18.10
2018,10,17,16,49,17.80
2018,10,17,16,50,17.60
2018,10,17,16,51,17.40
2018,10,17,16,52,17.10
2018,10,17,16,53,16.90
2018,10,17,16,54,16.70
2018,10,17,16,55,16.60
2018,10,17,16,56,16.40
2018,10,17,16,57,16.30
2018,10,17,16,58,16.30
2018,10,17,16,59,16.20
2018,10,17,17,00,16.10
2018,10,17,17,01,16.00
2018,10,17,17,02,16.00
2018,10,17,17,03,15.90
2018,10,17,17,04,15.80
2018,10,17,17,05,15.70
2018,10,17,17,06,15.70
2018,10,17,17,07,15.60
2018,10,17,17,08,15.50
2018,10,17,17,09,15.40
2018,10,17,17,10,15.40
2018,10,17,17,11,15.30
2018,10,17,17,12,15.20
2018,10,17,17,13,15.10
2018,10,17,17,14,14.90
2018,10,17,17,15,14.90
2018,10,17,17,16,14.80
2018,10,17,17,17,14.70
2018,10,17,17,18,14.60
2018,10,17,17,19,14.60
2018,10,17,17,20,14.50
2018,10,17,17,21,14.40
2018,10,17,17,22,14.30
2018,10,17,17,23,14.30
2018,10,17,17,24,14.30
2018,10,17,17,25,14.30
2018,10,17,17,26,14.30
2018,10,17,17,27,14.30
2018,10,17,17,28,14.30
2018,10,17,17,29,14.30
2018,10,17,17,30,14.20
2018,10,17,17,31,14.20
2018,10,17,17,32,14.20
2018,10,17,17,33,14.10
2018,10,17,17,34,14.00
2018,10,17,17,35,13.90
2018,10,17,17,36,13.80
2018,10,17,17,37,13.70
2018,10,17,17,38,13.50
2018,10,17,17,39,13.40
2018,10,17,17,40,13.30
2018,10,17,17,41,13.20
2018,10,17,17,42,13.20
2018,10,17,17,43,13.10
2018,10,17,17,44,13.10
2018,10,17,17,45,13.00
2018,10,17,17,46,13.00